This is the latest recevied weather packets stored in our database for station/object KB1ZFK. If no packets are shown the sender has not sent any weather packets the latest 10 day(s).
| Time | Temp. | Humidity | Pressure | Rain* | Wind** | Luminosity | Snow |
|---|---|---|---|---|---|---|---|
| 1777931262 | 20.56° C | 37% | 1005.9 hPa | 0 mm | - | 87 W/m² | - |
| 1777930959 | 20° C | 36% | 1005.8 hPa | 0 mm | - | 78 W/m² | - |
| 1777930656 | 20.56° C | 36% | 1006.1 hPa | 0 mm | - | 68 W/m² | - |
| 1777930352 | 20.56° C | 36% | 1005.6 hPa | 0 mm | - | 113 W/m² | - |
| 1777930049 | 20° C | 36% | 1005.8 hPa | 0 mm | - | 83 W/m² | - |
| 1777929746 | 20° C | 38% | 1005.9 hPa | 0 mm | - | 103 W/m² | - |
| 1777929443 | 20° C | 38% | 1005.9 hPa | 0 mm | - | 65 W/m² | - |
| 1777929139 | 20° C | 38% | 1005.8 hPa | 0 mm | - | 109 W/m² | - |
| 1777928837 | 20° C | 37% | 1005.7 hPa | 0 mm | - | 77 W/m² | - |
| 1777928534 | 20.56° C | 35% | 1005.8 hPa | 0 mm | - | 80 W/m² | - |
| 1777928231 | 20.56° C | 36% | 1005.8 hPa | 0 mm | - | 238 W/m² | - |
| 1777927928 | 20.56° C | 36% | 1005.8 hPa | 0 mm | - | 188 W/m² | - |
| 1777927627 | 20° C | 36% | 1005.9 hPa | 0 mm | - | 104 W/m² | - |
| 1777927325 | 20.56° C | 36% | 1005.7 hPa | 0 mm | - | 68 W/m² | - |
| 1777927023 | 21.11° C | 35% | 1005.9 hPa | 0 mm | - | 371 W/m² | - |
| 1777926721 | 20.56° C | 35% | 1005.9 hPa | 0 mm | - | 246 W/m² | - |
| 1777926420 | 20.56° C | 35% | 1005.8 hPa | 0 mm | - | 92 W/m² | - |
| 1777926118 | 20.56° C | 34% | 1005.8 hPa | 0 mm | - | 113 W/m² | - |
| 1777925815 | 20.56° C | 35% | 1005.8 hPa | 0 mm | - | 126 W/m² | - |
| 1777925512 | 21.11° C | 34% | 1005.8 hPa | 0 mm | - | 92 W/m² | - |
| 1777925210 | 21.67° C | 33% | 1005.9 hPa | 0 mm | - | 458 W/m² | - |
| 1777924906 | 21.67° C | 33% | 1005.8 hPa | 0 mm | - | 128 W/m² | - |
| 1777924602 | 21.67° C | 35% | 1005.8 hPa | 0 mm | - | 393 W/m² | - |
| 1777924298 | 21.11° C | 34% | 1005.7 hPa | 0 mm | - | 106 W/m² | - |
| 1777923995 | 20.56° C | 36% | 1005.8 hPa | 0 mm | - | 380 W/m² | - |
* Rain latest hour (hover to see other rain measurements)
** Current wind speed in m/s (hover to see current wind gust speed)